Voltar ao catálogo

STARLINK-3279

AtivoComunicaçõesVLEO
NORAD 50185·PAYLOAD·🇺🇸 United States

Lançado Dec 18, 2021 de Vandenberg Space Force Base

Loading…

Próximas Passagens (próximas 24 horas)

TLE

AtualizadoSource: CelesTrak SupGP

Época: Sep 14, 2026, 12:50 UTC

1 50185C 21125AF  26257.53520833  .00016368  00000+0  52636-3 0  2576
2 50185  53.1577 109.5281 0001325  94.5290 323.9604 15.31692997    15

Acompanhe STARLINK-3279 em tempo real com AllMySat

Download on the App Store